Home > Weather > Cabinda > Past weeks

Flag for Angola Past Weather in Cabinda, Angola — Yesterday and Last 2 Weeks

Now
75 °F

Passing clouds.


Feels Like: 74 °F
Forecast: 72 / 77 °F
Wind: 5 mph from West

Location: Pointe Airport-Noire

Current Time: Jun 26, 2016 at 8:18:15 PM

Latest Report: Jun 26, 2016 at 7:00 PM


Visibility: 4 mi

Pressure: 29.98 "Hg

Humidity: 94%

Dew Point: 73 °F

Location of CabindaLocation

Past Weather in Cabinda — Graph

°F

Cabinda Temperature Yesterday

Maximum temperature yesterday: 81 °F (at 1:00 PM)
Minimum temperature yesterday: 73 °F (at 1:00 AM)
Average temperature yesterday: 76 °F

High & Low Weather Summary for the Past Weeks

 TemperatureHumidityPressure
High82 °F (Jun 12, 1:00 PM)100% (Jun 11, 8:00 PM)32.90 "Hg (Jun 11, 8:00 PM)
Low70 °F (Jun 15, 4:00 AM)25% (Jun 15, 6:00 PM)29.86 "Hg (Jun 24, 3:00 PM)
Average76 °F85%30.00 "Hg
* Reported Jun 11 7:00 PM — Jun 26 7:00 PM, Cabinda, Weather by CustomWeather, © 2016

Note: Actual official high and low records may vary slightly from our data, if they occured in-between our weather recording intervals... More about our weather records

Advertising

Cabinda Weather History for the Previous 24 Hours

Scroll right to see more
 ConditionsComfort  
Time TempWeatherWind HumidityBarometerVisibility
7:00 PM
Sun, Jun 26
75 °FPassing clouds.5 mph94%29.98 "Hg4 mi
6:00 PM77 °FPassing clouds.6 mph83%29.95 "Hg4 mi
5:00 PM77 °FScattered clouds.6 mph94%29.92 "Hg4 mi
4:00 PM79 °FClear.9 mph79%29.92 "Hg4 mi
3:00 PM79 °FPassing clouds.12 mph79%29.92 "Hg4 mi
2:00 PM81 °FPassing clouds.12 mph70%29.95 "Hg4 mi
1:00 PM81 °FPassing clouds.12 mph70%29.92 "Hg4 mi
12:00 PM81 °FScattered clouds.10 mph70%29.95 "Hg4 mi
11:00 AM79 °FScattered clouds.5 mph74%29.98 "Hg4 mi
10:00 AM77 °FFog.7 mph83%30.01 "Hg2 mi
9:00 AM75 °FFog.8 mph89%30.01 "Hg2 mi
8:00 AM73 °FFog.5 mph94%30.01 "Hg1 mi
7:00 AM72 °FFog.3 mph100%29.98 "Hg1 mi
6:00 AM72 °FFog.2 mph100%29.98 "Hg2 mi
5:00 AM73 °FFog.2 mph94%29.95 "Hg2 mi
4:00 AM73 °FFog.2 mph94%29.95 "Hg2 mi
3:00 AM73 °FFog.2 mph94%29.95 "Hg2 mi
2:00 AM75 °FFog.2 mph89%29.98 "Hg2 mi
1:00 AM75 °FFog.3 mph89%29.98 "Hg2 mi
12:00 AM73 °FPassing clouds.No wind94%29.98 "Hg4 mi
11:00 PM
Sat, Jun 25
73 °FPassing clouds.2 mph94%29.98 "Hg4 mi
10:00 PM73 °FPassing clouds.2 mph94%29.95 "Hg4 mi
9:00 PM73 °FClear.3 mph94%29.95 "Hg4 mi
8:00 PM75 °FClear.3 mph89%29.92 "Hg4 mi
Weather by CustomWeather, © 2016

See weather overviewHow to use our weather pages